| time (UTC) | temp F | wind direction | speed knots | gust knots | rain 1hr in | rain 24hr in | rain mn in | humidity % | barometer mb |
| 20260509233637 | 57 | 171 | 6.1 | 9.6 | 0.00 | 0.00 | 0.00 | 75 | 1003.6 |
| 20260509232637 | 57 | 164 | 5.2 | 8.7 | 0.00 | 0.00 | 0.00 | 75 | 1003.8 |
| 20260509232137 | 57 | 162 | 6.1 | 10.4 | 0.00 | 0.00 | 0.00 | 75 | 1004.0 |
| 20260509231637 | 57 | 180 | 7.0 | 11.3 | 0.00 | 0.00 | 0.00 | 74 | 1003.9 |
| 20260509231136 | 57 | 171 | 7.0 | 11.3 | 0.00 | 0.00 | 0.00 | 76 | 1003.9 |
| 20260509230635 | 56 | 167 | 7.0 | 11.3 | 0.00 | 0.00 | 0.00 | 77 | 1004.0 |
| 20260509230135 | 57 | 183 | 7.8 | 11.3 | 0.00 | 0.00 | 0.00 | 75 | 1004.0 |
| 20260509225635 | 57 | 0 | 8.7 | 13.9 | 0.00 | 0.00 | 0.00 | 74 | 1004.0 |
| 20260509224136 | 56 | 173 | 7.8 | 13.9 | 0.00 | 0.00 | 0.00 | 75 | 1004.0 |
| 20260509223635 | 57 | 181 | 7.0 | 13.9 | 0.00 | 0.00 | 0.00 | 74 | 1004.1 |
| 20260509223135 | 56 | 196 | 7.0 | 14.8 | 0.00 | 0.00 | 0.00 | 75 | 1004.0 |
| 20260509222631 | 57 | 142 | 6.1 | 14.8 | 0.00 | 0.00 | 0.00 | 75 | 1003.9 |
| 20260509222132 | 56 | 175 | 4.3 | 9.6 | 0.00 | 0.00 | 0.00 | 75 | 1003.8 |
| 20260509221632 | 56 | 177 | 6.1 | 9.6 | 0.00 | 0.00 | 0.00 | 74 | 1003.8 |
| 20260509221131 | 56 | 162 | 7.0 | 10.4 | 0.00 | 0.00 | 0.00 | 73 | 1003.7 |
| 20260509220631 | 57 | 225 | 7.8 | 13.0 | 0.00 | 0.00 | 0.00 | 72 | 1003.8 |
| 20260509220131 | 57 | 171 | 7.8 | 13.0 | 0.00 | 0.00 | 0.00 | 71 | 1003.7 |
| 20260509215631 | 57 | 181 | 7.8 | 13.9 | 0.00 | 0.00 | 0.00 | 72 | 1003.7 |
| 20260509215131 | 57 | 178 | 7.8 | 13.9 | 0.00 | 0.00 | 0.00 | 71 | 1003.8 |
| 20260509214136 | 57 | 184 | 8.7 | 13.9 | 0.00 | 0.00 | 0.00 | 70 | 1003.9 |
| 20260509213632 | 57 | 179 | 7.8 | 11.3 | 0.00 | 0.00 | 0.00 | 71 | 1004.1 |
| 20260509213131 | 57 | 180 | 8.7 | 13.0 | 0.00 | 0.00 | 0.00 | 71 | 1004.1 |
| 20260509212632 | 58 | 182 | 8.7 | 13.0 | 0.00 | 0.00 | 0.00 | 70 | 1004.1 |
| 20260509212131 | 58 | 170 | 9.6 | 17.4 | 0.00 | 0.00 | 0.00 | 69 | 1004.1 |
| 20260509211632 | 59 | 180 | 10.4 | 18.2 | 0.00 | 0.00 | 0.00 | 69 | 1004.0 |
| 20260509211131 | 58 | 197 | 12.2 | 20.9 | 0.00 | 0.00 | 0.00 | 69 | 1004.2 |
| 20260509210631 | 59 | 226 | 13.0 | 22.6 | 0.00 | 0.00 | 0.00 | 68 | 1004.2 |
| 20260509210131 | 59 | 144 | 11.3 | 22.6 | 0.00 | 0.00 | 0.00 | 69 | 1004.1 |
| 20260509205630 | 58 | 197 | 13.0 | 19.1 | 0.00 | 0.00 | 0.00 | 69 | 1004.2 |
| 20260509205124 | 59 | 178 | 14.8 | 25.2 | 0.00 | 0.00 | 0.00 | 68 | 1004.1 |
| 20260509204623 | 58 | 191 | 13.9 | 25.2 | 0.00 | 0.00 | 0.00 | 69 | 1004.3 |
| 20260509204123 | 58 | 153 | 13.9 | 20.9 | 0.00 | 0.00 | 0.00 | 69 | 1004.1 |
| 20260509203622 | 59 | 181 | 13.9 | 20.9 | 0.00 | 0.00 | 0.00 | 68 | 1004.3 |
| 20260509203123 | 59 | 182 | 13.0 | 20.9 | 0.00 | 0.00 | 0.00 | 68 | 1004.4 |
| 20260509202619 | 59 | 170 | 11.3 | 20.9 | 0.00 | 0.00 | 0.00 | 67 | 1004.3 |
| 20260509202118 | 59 | 199 | 9.6 | 17.4 | 0.00 | 0.00 | 0.00 | 66 | 1004.1 |
| 20260509201619 | 59 | 0 | 7.0 | 13.0 | 0.00 | 0.00 | 0.00 | 65 | 1004.1 |
| 20260509200617 | 60 | 0 | 5.2 | 7.8 | 0.00 | 0.00 | 0.00 | 60 | 1004.1 |
| 20260509195615 | 63 | 0 | 7.0 | 10.4 | 0.00 | 0.00 | 0.00 | 54 | 1004.2 |
| 20260509195115 | 63 | 0 | 7.0 | 11.3 | 0.00 | 0.00 | 0.00 | 51 | 1004.3 |
| 20260509194612 | 64 | 208 | 7.8 | 11.3 | 0.00 | 0.00 | 0.00 | 49 | 1004.3 |
| 20260509194113 | 64 | 0 | 7.0 | 12.2 | 0.00 | 0.00 | 0.00 | 50 | 1004.4 |
| 20260509193613 | 63 | 207 | 7.8 | 12.2 | 0.00 | 0.00 | 0.00 | 51 | 1004.5 |
| 20260509193112 | 63 | 234 | 7.8 | 10.4 | 0.00 | 0.00 | 0.00 | 52 | 1004.5 |
| 20260509192611 | 62 | 187 | 7.8 | 12.2 | 0.00 | 0.00 | 0.00 | 54 | 1004.4 |
| 20260509192110 | 61 | 218 | 8.7 | 12.2 | 0.00 | 0.00 | 0.00 | 56 | 1004.5 |
| 20260509191608 | 60 | 219 | 7.8 | 12.2 | 0.00 | 0.00 | 0.00 | 60 | 1004.6 |
| 20260509191109 | 60 | 205 | 7.0 | 10.4 | 0.00 | 0.00 | 0.00 | 62 | 1004.6 |
| 20260509190609 | 59 | 202 | 7.0 | 9.6 | 0.00 | 0.00 | 0.00 | 62 | 1004.7 |
| 20260509190107 | 60 | 201 | 7.0 | 8.7 | 0.00 | 0.00 | 0.00 | 63 | 1004.8 |
| 20260509185606 | 60 | 220 | 7.8 | 10.4 | 0.00 | 0.00 | 0.00 | 61 | 1004.9 |
| 20260509185105 | 61 | 210 | 8.7 | 13.0 | 0.00 | 0.00 | 0.00 | 59 | 1005.1 |
| 20260509184604 | 61 | 213 | 8.7 | 13.0 | 0.00 | 0.00 | 0.00 | 57 | 1005.2 |
| 20260509184105 | 61 | 229 | 7.8 | 10.4 | 0.00 | 0.00 | 0.00 | 56 | 1005.3 |
| 20260509183601 | 62 | 218 | 8.7 | 12.2 | 0.00 | 0.00 | 0.00 | 55 | 1005.2 |
| 20260509183100 | 61 | 221 | 8.7 | 12.2 | 0.00 | 0.00 | 0.00 | 55 | 1005.4 |
| 20260509182601 | 61 | 229 | 9.6 | 12.2 | 0.00 | 0.00 | 0.00 | 55 | 1005.4 |
| 20260509182101 | 60 | 219 | 9.6 | 13.0 | 0.00 | 0.00 | 0.00 | 57 | 1005.4 |
| 20260509181101 | 60 | 218 | 9.6 | 13.0 | 0.00 | 0.00 | 0.00 | 56 | 1005.5 |
| 20260509180056 | 61 | 208 | 10.4 | 13.0 | 0.00 | 0.00 | 0.00 | 52 | 1005.5 |
| 20260509175557 | 61 | 217 | 8.7 | 13.0 | 0.00 | 0.00 | 0.00 | 53 | 1005.6 |
| 20260509175056 | 61 | 211 | 7.8 | 13.0 | 0.00 | 0.00 | 0.00 | 53 | 1005.6 |
| 20260509174056 | 61 | 211 | 7.0 | 12.2 | 0.00 | 0.00 | 0.00 | 51 | 1005.7 |
| 20260509173557 | 62 | 194 | 6.1 | 12.2 | 0.00 | 0.00 | 0.00 | 47 | 1005.7 |
| 20260509173055 | 62 | 218 | 6.1 | 7.8 | 0.00 | 0.00 | 0.00 | 47 | 1005.8 |
| 20260509172556 | 62 | 0 | 7.0 | 9.6 | 0.00 | 0.00 | 0.00 | 48 | 1005.7 |
| 20260509172055 | 61 | 0 | 6.1 | 9.6 | 0.00 | 0.00 | 0.00 | 47 | 1005.8 |
| 20260509171551 | 61 | 0 | 6.1 | 9.6 | 0.00 | 0.00 | 0.00 | 49 | 1005.9 |
| 20260509171051 | 61 | 0 | 6.1 | 12.2 | 0.00 | 0.00 | 0.00 | 50 | 1006.1 |
| 20260509170549 | 60 | 210 | 6.1 | 12.2 | 0.00 | 0.00 | 0.00 | 50 | 1006.1 |
| 20260509165549 | 61 | 209 | 7.0 | 12.2 | 0.00 | 0.00 | 0.00 | 50 | 1006.4 |
| 20260509165050 | 60 | 202 | 7.0 | 10.4 | 0.00 | 0.00 | 0.00 | 50 | 1006.5 |
| 20260509164547 | 60 | 205 | 6.1 | 10.4 | 0.00 | 0.00 | 0.00 | 52 | 1006.6 |
| 20260509164047 | 60 | 212 | 5.2 | 10.4 | 0.00 | 0.00 | 0.00 | 53 | 1006.5 |
| 20260509163545 | 60 | 0 | 4.3 | 7.8 | 0.00 | 0.00 | 0.00 | 53 | 1006.6 |
| 20260509163044 | 59 | 0 | 3.5 | 5.2 | 0.00 | 0.00 | 0.00 | 56 | 1006.6 |
| 20260509162545 | 59 | 169 | 4.3 | 6.1 | 0.00 | 0.00 | 0.00 | 54 | 1006.7 |
| 20260509162043 | 60 | 0 | 6.1 | 8.7 | 0.00 | 0.00 | 0.00 | 52 | 1006.8 |
| 20260509161543 | 60 | 196 | 7.8 | 12.2 | 0.00 | 0.00 | 0.00 | 50 | 1007.0 |
| 20260509161044 | 60 | 217 | 7.8 | 12.2 | 0.00 | 0.00 | 0.00 | 49 | 1007.2 |
| 20260509160543 | 60 | 223 | 7.8 | 10.4 | 0.00 | 0.00 | 0.00 | 51 | 1007.1 |
| 20260509160043 | 59 | 221 | 7.8 | 10.4 | 0.00 | 0.00 | 0.00 | 52 | 1007.3 |
| 20260509155045 | 59 | 212 | 7.0 | 11.3 | 0.00 | 0.00 | 0.00 | 52 | 1007.6 |
| 20260509154545 | 58 | 217 | 6.1 | 11.3 | 0.00 | 0.00 | 0.00 | 52 | 1007.6 |
| 20260509154042 | 58 | 0 | 5.2 | 9.6 | 0.00 | 0.00 | 0.00 | 56 | 1007.7 |
| 20260509153042 | 0 | 0.0 | 0.0 | 0.00 | 0.00 | 0.00 | 1007.8 | ||
| 20260509152445 | 0 | 0.0 | 0.0 | 0.00 | 0.00 | 0.00 | 1007.9 | ||
| 20260509151943 | 0 | 0.0 | 0.0 | 0.00 | 0.00 | 0.00 | 1007.9 | ||
| 20260509151433 | 0 | 0.0 | 0.0 | 0.00 | 0.00 | 0.00 | 1008.0 | ||
| 20260509150927 | 0 | 0.0 | 0.0 | 0.00 | 0.00 | 0.00 | 1008.1 | ||
| 20260509150345 | 0 | 0.0 | 0.0 | 0.00 | 0.00 | 0.00 | 1008.1 | ||
| 20260509145843 | 0 | 0.0 | 0.0 | 0.00 | 0.00 | 0.00 | 1008.2 | ||
| 20260509145340 | 0 | 0.0 | 0.0 | 0.00 | 0.00 | 0.00 | 1008.2 | ||
| 20260509144747 | 0 | 0.0 | 0.0 | 0.00 | 0.00 | 0.00 | 1008.3 | ||
| 20260509144150 | 0 | 0.0 | 0.0 | 0.00 | 0.00 | 0.00 | 1008.4 | ||
| 20260509143133 | 0 | 0.0 | 0.0 | 0.00 | 0.00 | 0.00 | 1008.3 | ||
| 20260509142546 | 0 | 0.0 | 0.0 | 0.00 | 0.00 | 0.00 | 1008.4 | ||
| 20260509141436 | 0 | 0.0 | 0.0 | 0.00 | 0.00 | 0.00 | 1008.4 | ||
| 20260509140844 | 0 | 0.0 | 0.0 | 0.00 | 0.00 | 0.00 | 1008.6 | ||
| 20260509135150 | 0 | 0.0 | 0.0 | 0.00 | 0.00 | 0.00 | 1008.7 | ||
| 20260509134646 | 0 | 0.0 | 0.0 | 0.00 | 0.00 | 0.00 | 1008.7 | ||
| 20260509133547 | 0 | 0.0 | 0.0 | 0.00 | 0.00 | 0.00 | 1008.8 | ||
| 20260509133046 | 0 | 0.0 | 0.0 | 0.00 | 0.00 | 0.00 | 1008.9 | ||
| 20260509132540 | 0 | 0.0 | 0.0 | 0.00 | 0.00 | 0.00 | 1009.0 | ||
| 20260509131946 | 0 | 0.0 | 0.0 | 0.00 | 0.00 | 0.00 | 1009.0 | ||
| 20260509131436 | 0 | 0.0 | 0.0 | 0.00 | 0.00 | 0.00 | 1009.0 | ||
| 20260509130847 | 0 | 0.0 | 0.0 | 0.00 | 0.00 | 0.00 | 1009.0 | ||
| 20260509130345 | 0 | 0.0 | 0.0 | 0.00 | 0.00 | 0.00 | 1008.9 | ||
| 20260509125843 | 0 | 0.0 | 0.0 | 0.00 | 0.00 | 0.00 | 1008.9 | ||
| 20260509125338 | 0 | 0.0 | 0.0 | 0.00 | 0.00 | 0.00 | 1008.9 | ||
| 20260509124245 | 0 | 0.0 | 0.0 | 0.00 | 0.00 | 0.00 | 1008.9 | ||
| 20260509123151 | 0 | 0.0 | 0.0 | 0.00 | 0.00 | 0.00 | 1009.1 | ||
| 20260509121643 | 0 | 0.0 | 0.0 | 0.00 | 0.00 | 0.00 | 1009.1 | ||
| 20260509121141 | 0 | 0.0 | 0.0 | 0.00 | 0.00 | 0.00 | 1009.2 | ||
| 20260509120044 | 0 | 0.0 | 0.0 | 0.00 | 0.00 | 0.00 | 1009.3 | ||
| 20260509115538 | 0 | 0.0 | 0.0 | 0.00 | 0.00 | 0.00 | 1009.3 | ||
| 20260509115018 | 0 | 0.0 | 0.0 | 0.00 | 0.00 | 0.00 | 1009.4 | ||
| 20260509113845 | 0 | 0.0 | 0.0 | 0.00 | 0.00 | 0.00 | 1009.4 | ||
| 20260509112241 | 0 | 0.0 | 0.0 | 0.00 | 0.00 | 0.00 | 1009.3 | ||
| 20260509111136 | 0 | 0.0 | 0.0 | 0.00 | 0.00 | 0.00 | 1009.4 | ||
| 20260509110051 | 0 | 0.0 | 0.0 | 0.00 | 0.00 | 0.00 | 1009.3 | ||
| 20260509105041 | 0 | 0.0 | 0.0 | 0.00 | 0.00 | 0.00 | 1009.2 | ||
| 20260509104447 | 0 | 0.0 | 0.0 | 0.00 | 0.00 | 0.00 | 1009.1 | ||
| 20260509103941 | 0 | 0.0 | 0.0 | 0.00 | 0.00 | 0.00 | 1009.0 | ||
| 20260509103344 | 0 | 0.0 | 0.0 | 0.00 | 0.00 | 0.00 | 1009.0 | ||
| 20260509102842 | 0 | 0.0 | 0.0 | 0.00 | 0.00 | 0.00 | 1008.9 | ||
| 20260509102340 | 0 | 0.0 | 0.0 | 0.00 | 0.00 | 0.00 | 1008.9 | ||
| 20260509101242 | 0 | 0.0 | 0.0 | 0.00 | 0.00 | 0.00 | 1008.9 | ||
| 20260509100718 | 0 | 0.0 | 0.0 | 0.00 | 0.00 | 0.00 | 1009.0 | ||
| 20260509100136 | 0 | 0.0 | 0.0 | 0.00 | 0.00 | 0.00 | 1009.0 | ||
| 20260509095633 | 0 | 0.0 | 0.0 | 0.00 | 0.00 | 0.00 | 1008.9 | ||
| 20260509095047 | 0 | 0.0 | 0.0 | 0.00 | 0.00 | 0.00 | 1009.0 | ||
| 20260509094540 | 0 | 0.0 | 0.0 | 0.00 | 0.00 | 0.00 | 1008.9 | ||
| 20260509094036 | 0 | 0.0 | 0.0 | 0.00 | 0.00 | 0.00 | 1009.0 | ||
| 20260509093450 | 0 | 0.0 | 0.0 | 0.00 | 0.00 | 0.00 | 1009.1 | ||
| 20260509091850 | 0 | 0.0 | 0.0 | 0.00 | 0.00 | 0.00 | 1009.2 | ||
| 20260509090837 | 0 | 0.0 | 0.0 | 0.00 | 0.00 | 0.00 | 1009.2 | ||
| 20260509090249 | 0 | 0.0 | 0.0 | 0.00 | 0.00 | 0.00 | 1009.2 | ||
| 20260509085734 | 0 | 0.0 | 0.0 | 0.00 | 0.00 | 0.00 | 1009.2 | ||
| 20260509085230 | 42 | 0.0 | 0.0 | 0.00 | 0.00 | 0.00 | 69 | 1009.2 | |
| 20260509084728 | 42 | 0 | 5.2 | 7.0 | 0.00 | 0.00 | 0.00 | 69 | 1009.2 |
| 20260509084214 | 42 | 0 | 5.2 | 7.0 | 0.00 | 0.00 | 0.00 | 69 | 1009.2 |
| 20260509083154 | 42 | 198 | 5.2 | 7.8 | 0.00 | 0.00 | 0.00 | 69 | 1009.2 |
| 20260509082654 | 42 | 196 | 5.2 | 7.8 | 0.00 | 0.00 | 0.00 | 69 | 1009.2 |
| 20260509082155 | 42 | 189 | 6.1 | 8.7 | 0.00 | 0.00 | 0.00 | 69 | 1009.3 |
| 20260509081654 | 42 | 0 | 6.1 | 10.4 | 0.00 | 0.00 | 0.00 | 69 | 1009.3 |
| 20260509081150 | 42 | 176 | 7.0 | 10.4 | 0.00 | 0.00 | 0.00 | 68 | 1009.4 |
| 20260509080650 | 42 | 193 | 6.1 | 9.6 | 0.00 | 0.00 | 0.00 | 69 | 1009.4 |
| 20260509080150 | 42 | 188 | 6.1 | 8.7 | 0.00 | 0.00 | 0.00 | 70 | 1009.4 |
| 20260509075650 | 42 | 166 | 6.1 | 8.7 | 0.00 | 0.00 | 0.00 | 69 | 1009.4 |
| 20260509075150 | 42 | 192 | 6.1 | 8.7 | 0.00 | 0.00 | 0.00 | 69 | 1009.4 |
| 20260509074649 | 42 | 166 | 5.2 | 8.7 | 0.00 | 0.00 | 0.00 | 69 | 1009.4 |
| 20260509074150 | 42 | 176 | 5.2 | 8.7 | 0.00 | 0.00 | 0.00 | 70 | 1009.5 |
| 20260509073651 | 42 | 197 | 6.1 | 9.6 | 0.00 | 0.00 | 0.00 | 69 | 1009.5 |
| 20260509073151 | 42 | 182 | 5.2 | 9.6 | 0.00 | 0.00 | 0.00 | 69 | 1009.5 |
| 20260509072150 | 42 | 182 | 4.3 | 7.8 | 0.00 | 0.00 | 0.00 | 70 | 1009.7 |
| 20260509071650 | 43 | 184 | 3.5 | 7.0 | 0.00 | 0.00 | 0.00 | 70 | 1009.5 |
| 20260509071150 | 43 | 0 | 3.5 | 5.2 | 0.00 | 0.00 | 0.00 | 70 | 1009.5 |
| 20260509070650 | 43 | 172 | 3.5 | 5.2 | 0.00 | 0.00 | 0.00 | 69 | 1009.5 |
| 20260509070150 | 43 | 161 | 3.5 | 6.1 | 0.00 | 0.00 | 0.00 | 68 | 1009.5 |
| 20260509065650 | 43 | 166 | 4.3 | 7.0 | 0.00 | 0.00 | 0.00 | 67 | 1009.5 |
| 20260509064649 | 43 | 172 | 3.5 | 7.0 | 0.00 | 0.00 | 0.00 | 68 | 1009.5 |
| 20260509064147 | 43 | 198 | 3.5 | 6.1 | 0.00 | 0.00 | 0.00 | 68 | 1009.7 |
| 20260509063646 | 43 | 173 | 3.5 | 5.2 | 0.00 | 0.00 | 0.00 | 68 | 1009.8 |
| 20260509063144 | 43 | 182 | 3.5 | 5.2 | 0.00 | 0.00 | 0.00 | 67 | 1009.8 |
| 20260509062644 | 43 | 167 | 3.5 | 5.2 | 0.00 | 0.00 | 0.00 | 67 | 1009.8 |
| 20260509062145 | 43 | 0 | 3.5 | 6.1 | 0.00 | 0.00 | 0.00 | 69 | 1009.8 |
| 20260509061644 | 44 | 166 | 3.5 | 6.1 | 0.00 | 0.00 | 0.00 | 70 | 1009.8 |
| 20260509060643 | 44 | 168 | 4.3 | 6.1 | 0.00 | 0.00 | 0.00 | 72 | 1009.9 |
| 20260509060142 | 44 | 169 | 4.3 | 7.0 | 0.00 | 0.00 | 0.00 | 73 | 1010.0 |
| 20260509055642 | 44 | 186 | 4.3 | 7.0 | 0.00 | 0.00 | 0.00 | 74 | 1010.0 |
| 20260509055140 | 44 | 200 | 5.2 | 9.6 | 0.00 | 0.00 | 0.00 | 73 | 1010.2 |
| 20260509054640 | 44 | 200 | 5.2 | 9.6 | 0.00 | 0.00 | 0.00 | 73 | 1010.2 |
| 20260509054139 | 44 | 0 | 4.3 | 7.0 | 0.00 | 0.00 | 0.00 | 73 | 1010.2 |
| 20260509053637 | 44 | 205 | 3.5 | 6.1 | 0.00 | 0.00 | 0.00 | 73 | 1010.2 |
| 20260509053136 | 44 | 175 | 3.5 | 6.1 | 0.00 | 0.00 | 0.00 | 73 | 1010.2 |
| 20260509052635 | 44 | 167 | 3.5 | 5.2 | 0.00 | 0.00 | 0.00 | 73 | 1010.2 |
| 20260509051634 | 44 | 0 | 4.3 | 7.8 | 0.00 | 0.00 | 0.00 | 73 | 1010.2 |
| 20260509051130 | 45 | 178 | 6.1 | 8.7 | 0.00 | 0.00 | 0.00 | 73 | 1010.2 |
| 20260509050630 | 45 | 214 | 7.0 | 8.7 | 0.00 | 0.00 | 0.00 | 70 | 1010.2 |
| 20260509045130 | 45 | 188 | 7.0 | 8.7 | 0.00 | 0.00 | 0.00 | 72 | 1010.4 |
| 20260509044630 | 45 | 177 | 6.1 | 8.7 | 0.00 | 0.00 | 0.00 | 73 | 1010.4 |
| 20260509044130 | 45 | 194 | 6.1 | 7.8 | 0.00 | 0.00 | 0.00 | 74 | 1010.4 |
| 20260509043630 | 45 | 193 | 5.2 | 7.8 | 0.00 | 0.00 | 0.00 | 74 | 1010.4 |
| 20260509043130 | 45 | 195 | 5.2 | 7.8 | 0.00 | 0.00 | 0.00 | 75 | 1010.3 |
| 20260509042628 | 45 | 205 | 5.2 | 7.0 | 0.00 | 0.00 | 0.00 | 74 | 1010.4 |
| 20260509041624 | 45 | 200 | 5.2 | 7.8 | 0.00 | 0.00 | 0.00 | 74 | 1010.3 |
| 20260509041125 | 45 | 0 | 5.2 | 7.8 | 0.00 | 0.00 | 0.00 | 74 | 1010.3 |
| 20260509040624 | 45 | 193 | 6.1 | 7.8 | 0.00 | 0.00 | 0.00 | 74 | 1010.2 |
| 20260509040124 | 45 | 212 | 5.2 | 7.8 | 0.00 | 0.00 | 0.00 | 74 | 1010.2 |
| 20260509035623 | 45 | 201 | 5.2 | 7.0 | 0.00 | 0.00 | 0.00 | 74 | 1010.2 |
| 20260509034618 | 45 | 196 | 4.3 | 7.0 | 0.00 | 0.00 | 0.00 | 77 | 1010.3 |
| 20260509033617 | 45 | 0 | 5.2 | 8.7 | 0.00 | 0.00 | 0.00 | 78 | 1010.3 |
| 20260509033118 | 46 | 0 | 5.2 | 7.8 | 0.00 | 0.00 | 0.00 | 79 | 1010.3 |
| 20260509032617 | 46 | 0 | 5.2 | 8.7 | 0.00 | 0.00 | 0.00 | 79 | 1010.3 |
| 20260509032115 | 46 | 0 | 5.2 | 8.7 | 0.00 | 0.00 | 0.00 | 78 | 1010.3 |
| 20260509031116 | 46 | 230 | 7.0 | 9.6 | 0.00 | 0.00 | 0.00 | 77 | 1010.4 |
| 20260509030618 | 46 | 198 | 7.0 | 9.6 | 0.00 | 0.00 | 0.00 | 76 | 1010.4 |
| 20260509025613 | 46 | 201 | 7.0 | 9.6 | 0.00 | 0.00 | 0.00 | 76 | 1010.5 |
| 20260509025114 | 46 | 197 | 6.1 | 8.7 | 0.00 | 0.00 | 0.00 | 77 | 1010.5 |
| 20260509024618 | 46 | 0 | 6.1 | 9.6 | 0.00 | 0.00 | 0.00 | 77 | 1010.5 |
| 20260509024113 | 46 | 219 | 6.1 | 9.6 | 0.00 | 0.00 | 0.00 | 77 | 1010.6 |
| 20260509023614 | 46 | 199 | 6.1 | 8.7 | 0.00 | 0.00 | 0.00 | 77 | 1010.6 |
| 20260509023113 | 46 | 186 | 4.3 | 7.0 | 0.00 | 0.00 | 0.00 | 78 | 1010.5 |
| 20260509022607 | 46 | 0 | 4.3 | 7.8 | 0.00 | 0.00 | 0.00 | 77 | 1010.5 |
| 20260509022101 | 46 | 192 | 4.3 | 7.8 | 0.00 | 0.00 | 0.00 | 75 | 1010.6 |
| 20260509021555 | 46 | 187 | 5.2 | 7.8 | 0.00 | 0.00 | 0.00 | 77 | 1010.5 |
| 20260509021050 | 46 | 0 | 5.2 | 7.8 | 0.00 | 0.00 | 0.00 | 80 | 1010.6 |
| 20260509020543 | 46 | 194 | 5.2 | 7.8 | 0.00 | 0.00 | 0.00 | 80 | 1010.6 |
| 20260509020037 | 46 | 202 | 5.2 | 7.8 | 0.00 | 0.00 | 0.00 | 79 | 1010.6 |
| 20260509015531 | 46 | 217 | 4.3 | 7.0 | 0.00 | 0.00 | 0.00 | 79 | 1010.7 |
| 20260509014521 | 47 | 192 | 5.2 | 7.0 | 0.00 | 0.00 | 0.00 | 78 | 1010.5 |
| 20260509014013 | 47 | 0 | 6.1 | 9.6 | 0.00 | 0.00 | 0.00 | 75 | 1010.5 |
| 20260509013508 | 47 | 213 | 5.2 | 8.7 | 0.00 | 0.00 | 0.00 | 72 | 1010.5 |
| 20260509013001 | 47 | 206 | 3.5 | 7.8 | 0.00 | 0.00 | 0.00 | 72 | 1010.3 |
| 20260509012455 | 47 | 212 | 3.5 | 5.2 | 0.00 | 0.00 | 0.00 | 74 | 1010.4 |
| 20260509011949 | 48 | 205 | 4.3 | 7.8 | 0.00 | 0.00 | 0.00 | 75 | 1010.3 |
| 20260509011443 | 48 | 195 | 5.2 | 8.7 | 0.00 | 0.00 | 0.00 | 65 | 1010.2 |
| 20260509010937 | 48 | 176 | 5.2 | 8.7 | 0.00 | 0.00 | 0.00 | 61 | 1010.2 |
| 20260509010431 | 48 | 209 | 5.2 | 8.7 | 0.00 | 0.00 | 0.00 | 60 | 1010.2 |
| 20260509005925 | 48 | 221 | 5.2 | 8.7 | 0.00 | 0.00 | 0.00 | 58 | 1010.0 |
| 20260509005419 | 48 | 204 | 5.2 | 9.6 | 0.00 | 0.00 | 0.00 | 58 | 1010.0 |
| 20260509004913 | 49 | 228 | 5.2 | 9.6 | 0.00 | 0.00 | 0.00 | 57 | 1010.0 |
| 20260509004407 | 49 | 229 | 5.2 | 9.6 | 0.00 | 0.00 | 0.00 | 56 | 1009.9 |
| 20260509003901 | 49 | 237 | 6.1 | 9.6 | 0.00 | 0.00 | 0.00 | 55 | 1009.9 |
| 20260509002849 | 49 | 0 | 5.2 | 9.6 | 0.00 | 0.00 | 0.00 | 53 | 1009.8 |
| 20260509002344 | 49 | 196 | 5.2 | 9.6 | 0.00 | 0.00 | 0.00 | 53 | 1009.9 |
| 20260509001836 | 49 | 0 | 5.2 | 12.2 | 0.00 | 0.00 | 0.00 | 51 | 1009.8 |
| 20260509001331 | 49 | 214 | 5.2 | 12.2 | 0.00 | 0.00 | 0.00 | 51 | 1009.8 |
| 20260509000826 | 49 | 217 | 5.2 | 9.6 | 0.00 | 0.00 | 0.00 | 52 | 1009.8 |
| 20260509000319 | 49 | 221 | 6.1 | 10.4 | 0.00 | 0.00 | 0.00 | 51 | 1009.7 |
| 20260508235813 | 49 | 237 | 6.1 | 10.4 | 0.00 | 0.00 | 0.00 | 51 | 1009.7 |
| 20260508235307 | 49 | 0 | 5.2 | 12.2 | 0.00 | 0.00 | 0.00 | 52 | 1009.5 |
| 20260508234801 | 49 | 248 | 4.3 | 12.2 | 0.00 | 0.00 | 0.00 | 53 | 1009.5 |
| 20260508234256 | 49 | 221 | 6.1 | 11.3 | 0.00 | 0.00 | 0.00 | 56 | 1009.5 |
| 20260508233749 | 49 | 242 | 8.7 | 13.9 | 0.00 | 0.00 | 0.00 | 57 | 1009.5 |